| time (UTC) | temp F | wind direction | speed MPH | gust MPH | rain 1hr in | rain 24hr in | rain mn in | humidity % | barometer mb |
| 20260508142334 | 69 | 34 | 1.0 | 8.0 | 0.00 | 0.00 | 0.00 | 88 | 1013.4 |
| 20260508141341 | 69 | 358 | 3.0 | 6.0 | 0.00 | 0.00 | 0.00 | 88 | 1013.3 |
| 20260508140327 | 69 | 9 | 2.0 | 4.0 | 0.00 | 0.00 | 0.00 | 88 | 1013.6 |
| 20260508135334 | 69 | 12 | 0.0 | 6.0 | 0.00 | 0.00 | 0.00 | 88 | 1013.5 |
| 20260508134341 | 69 | 5 | 1.0 | 5.0 | 0.00 | 0.00 | 0.00 | 88 | 1013.4 |
| 20260508133328 | 68 | 318 | 0.0 | 5.0 | 0.00 | 0.00 | 0.00 | 88 | 1013.5 |
| 20260508132339 | 68 | 336 | 0.0 | 3.0 | 0.00 | 0.00 | 0.00 | 88 | 1013.6 |
| 20260508131328 | 68 | 335 | 0.0 | 4.0 | 0.00 | 0.00 | 0.00 | 88 | 1013.4 |
| 20260508130333 | 68 | 356 | 1.0 | 4.0 | 0.00 | 0.00 | 0.00 | 88 | 1013.1 |
| 20260508125340 | 68 | 340 | 1.0 | 4.0 | 0.00 | 0.00 | 0.00 | 88 | 1013.6 |
| 20260508124329 | 67 | 321 | 1.0 | 4.0 | 0.00 | 0.00 | 0.00 | 88 | 1013.8 |
| 20260508123334 | 67 | 357 | 0.0 | 0.0 | 0.00 | 0.00 | 0.00 | 88 | 1013.6 |
| 20260508122325 | 67 | 356 | 0.0 | 2.0 | 0.00 | 0.00 | 0.00 | 88 | 1013.3 |
| 20260508121332 | 67 | 12 | 1.0 | 2.0 | 0.00 | 0.00 | 0.00 | 88 | 1013.4 |
| 20260508120339 | 67 | 43 | 0.0 | 3.0 | 0.00 | 0.00 | 0.00 | 87 | 1013.4 |
| 20260508115327 | 67 | 358 | 0.0 | 4.0 | 0.00 | 0.00 | 0.00 | 87 | 1013.5 |
| 20260508114334 | 67 | 36 | 0.0 | 2.0 | 0.00 | 0.00 | 0.00 | 87 | 1013.6 |
| 20260508113343 | 67 | 14 | 0.0 | 3.0 | 0.00 | 0.00 | 0.00 | 86 | 1014.0 |
| 20260508112332 | 67 | 308 | 1.0 | 3.0 | 0.00 | 0.00 | 0.00 | 85 | 1014.3 |
| 20260508111404 | 68 | 300 | 2.0 | 4.0 | 0.00 | 0.00 | 0.00 | 84 | 1014.1 |
| 20260508110350 | 68 | 331 | 0.0 | 5.0 | 0.00 | 0.00 | 0.00 | 83 | 1013.5 |
| 20260508105335 | 68 | 314 | 1.0 | 5.0 | 0.00 | 0.00 | 0.00 | 84 | 1013.6 |
| 20260508104343 | 68 | 283 | 3.0 | 8.0 | 0.00 | 0.00 | 0.00 | 84 | 1013.4 |
| 20260508103328 | 68 | 76 | 0.0 | 0.0 | 0.00 | 0.00 | 0.00 | 84 | 1012.8 |
| 20260508102335 | 68 | 76 | 0.0 | 1.0 | 0.00 | 0.00 | 0.00 | 83 | 1013.1 |
| 20260508101344 | 68 | 77 | 0.0 | 3.0 | 0.00 | 0.00 | 0.00 | 83 | 1012.9 |
| 20260508100333 | 68 | 69 | 0.0 | 1.0 | 0.00 | 0.00 | 0.00 | 83 | 1012.6 |
| 20260508095324 | 67 | 52 | 0.0 | 3.0 | 0.00 | 0.00 | 0.00 | 84 | 1013.1 |
| 20260508094331 | 67 | 88 | 0.0 | 8.0 | 0.00 | 0.00 | 0.00 | 84 | 1013.4 |
| 20260508093336 | 67 | 298 | 1.0 | 4.0 | 0.00 | 0.00 | 0.00 | 84 | 1014.0 |
| 20260508092402 | 67 | 350 | 3.0 | 6.0 | 0.00 | 0.00 | 0.00 | 84 | 1013.7 |
| 20260508091327 | 67 | 296 | 2.0 | 8.0 | 0.00 | 0.00 | 0.00 | 84 | 1013.5 |
| 20260508090352 | 67 | 49 | 2.0 | 6.0 | 0.00 | 0.00 | 0.00 | 83 | 1013.0 |
| 20260508085340 | 67 | 340 | 1.0 | 4.0 | 0.00 | 0.00 | 0.00 | 84 | 1013.2 |
| 20260508084332 | 67 | 47 | 0.0 | 4.0 | 0.00 | 0.00 | 0.00 | 83 | 1013.0 |
| 20260508083341 | 67 | 64 | 0.0 | 4.0 | 0.00 | 0.00 | 0.00 | 83 | 1012.6 |
| 20260508082350 | 67 | 22 | 0.0 | 4.0 | 0.00 | 0.00 | 0.00 | 83 | 1012.8 |
| 20260508081337 | 67 | 308 | 0.0 | 3.0 | 0.00 | 0.00 | 0.00 | 84 | 1013.6 |
| 20260508080342 | 67 | 316 | 0.0 | 0.0 | 0.00 | 0.00 | 0.00 | 83 | 1013.7 |
| 20260508075351 | 67 | 17 | 0.0 | 3.0 | 0.00 | 0.00 | 0.00 | 84 | 1013.4 |
| 20260508074335 | 67 | 2 | 0.0 | 2.0 | 0.00 | 0.00 | 0.00 | 84 | 1013.4 |
| 20260508073342 | 67 | 4 | 0.0 | 3.0 | 0.00 | 0.00 | 0.00 | 84 | 1013.7 |
| 20260508072333 | 67 | 340 | 1.0 | 4.0 | 0.00 | 0.00 | 0.00 | 84 | 1013.9 |
| 20260508071340 | 67 | 345 | 2.0 | 5.0 | 0.00 | 0.00 | 0.00 | 83 | 1014.0 |
| 20260508070325 | 67 | 332 | 1.0 | 4.0 | 0.00 | 0.00 | 0.00 | 84 | 1014.1 |
| 20260508064339 | 67 | 8 | 1.0 | 4.0 | 0.00 | 0.00 | 0.00 | 84 | 1014.1 |
| 20260508063342 | 67 | 9 | 2.0 | 4.0 | 0.00 | 0.00 | 0.00 | 84 | 1014.0 |
| 20260508062329 | 67 | 333 | 0.0 | 4.0 | 0.00 | 0.00 | 0.00 | 85 | 1014.0 |
| 20260508061341 | 66 | 350 | 1.0 | 3.0 | 0.00 | 0.00 | 0.00 | 85 | 1013.9 |
| 20260508060325 | 66 | 11 | 1.0 | 4.0 | 0.00 | 0.00 | 0.00 | 85 | 1013.5 |
| 20260508055329 | 66 | 323 | 1.0 | 3.0 | 0.00 | 0.00 | 0.00 | 85 | 1013.7 |
| 20260508054337 | 66 | 326 | 0.0 | 3.0 | 0.00 | 0.00 | 0.00 | 85 | 1013.7 |
| 20260508053342 | 66 | 314 | 0.0 | 2.0 | 0.00 | 0.00 | 0.00 | 84 | 1013.8 |
| 20260508052352 | 67 | 333 | 0.0 | 1.0 | 0.00 | 0.00 | 0.00 | 83 | 1013.7 |
| 20260508051337 | 67 | 333 | 0.0 | 1.0 | 0.00 | 0.00 | 0.00 | 83 | 1013.9 |
| 20260508050342 | 67 | 340 | 0.0 | 2.0 | 0.00 | 0.00 | 0.00 | 83 | 1013.9 |
| 20260508045334 | 67 | 304 | 1.0 | 3.0 | 0.00 | 0.00 | 0.00 | 82 | 1014.1 |
| 20260508044400 | 67 | 356 | 1.0 | 4.0 | 0.00 | 0.00 | 0.00 | 81 | 1014.0 |
| 20260508043342 | 67 | 340 | 1.0 | 4.0 | 0.00 | 0.00 | 0.00 | 82 | 1014.1 |
| 20260508042327 | 67 | 345 | 2.0 | 4.0 | 0.00 | 0.00 | 0.00 | 81 | 1014.2 |
| 20260508041337 | 67 | 307 | 1.0 | 5.0 | 0.00 | 0.00 | 0.00 | 81 | 1014.4 |
| 20260508040340 | 67 | 9 | 1.0 | 4.0 | 0.00 | 0.00 | 0.00 | 80 | 1014.0 |
| 20260508035327 | 67 | 358 | 2.0 | 6.0 | 0.00 | 0.00 | 0.00 | 80 | 1013.8 |
| 20260508034338 | 67 | 304 | 3.0 | 6.0 | 0.00 | 0.00 | 0.00 | 80 | 1014.1 |
| 20260508033402 | 68 | 322 | 2.0 | 5.0 | 0.00 | 0.00 | 0.00 | 80 | 1013.8 |
| 20260508032326 | 68 | 4 | 2.0 | 3.0 | 0.00 | 0.00 | 0.00 | 79 | 1013.7 |
| 20260508031333 | 68 | 350 | 0.0 | 2.0 | 0.00 | 0.00 | 0.00 | 78 | 1013.1 |
| 20260508030337 | 68 | 60 | 1.0 | 2.0 | 0.00 | 0.00 | 0.00 | 78 | 1013.1 |
| 20260508025326 | 68 | 24 | 0.0 | 4.0 | 0.00 | 0.00 | 0.00 | 77 | 1013.9 |
| 20260508024332 | 68 | 2 | 1.0 | 5.0 | 0.00 | 0.00 | 0.00 | 77 | 1014.2 |
| 20260508023338 | 68 | 334 | 3.0 | 6.0 | 0.00 | 0.00 | 0.00 | 77 | 1014.3 |
| 20260508022328 | 68 | 295 | 2.0 | 8.0 | 0.00 | 0.00 | 0.00 | 77 | 1014.3 |
| 20260508021335 | 69 | 299 | 2.0 | 6.0 | 0.00 | 0.00 | 0.00 | 77 | 1014.3 |
| 20260508020337 | 69 | 25 | 2.0 | 8.0 | 0.00 | 0.00 | 0.00 | 77 | 1014.0 |
| 20260508015343 | 69 | 323 | 3.0 | 6.0 | 0.00 | 0.00 | 0.00 | 77 | 1014.2 |
| 20260508014350 | 69 | 329 | 2.0 | 8.0 | 0.00 | 0.00 | 0.00 | 77 | 1014.3 |
| 20260508013331 | 69 | 322 | 2.0 | 8.0 | 0.00 | 0.00 | 0.00 | 76 | 1014.3 |
| 20260508012337 | 70 | 310 | 2.0 | 6.0 | 0.00 | 0.00 | 0.00 | 76 | 1014.1 |
| 20260508011343 | 70 | 327 | 3.0 | 8.0 | 0.00 | 0.00 | 0.00 | 75 | 1014.0 |
| 20260508010331 | 71 | 9 | 2.0 | 11.0 | 0.00 | 0.00 | 0.00 | 75 | 1014.2 |
| 20260508005338 | 71 | 316 | 2.0 | 6.0 | 0.00 | 0.00 | 0.00 | 75 | 1014.2 |
| 20260508004346 | 71 | 354 | 2.0 | 6.0 | 0.00 | 0.00 | 0.00 | 74 | 1013.8 |
| 20260508003351 | 72 | 276 | 3.0 | 8.0 | 0.00 | 0.00 | 0.00 | 74 | 1014.1 |
| 20260508002339 | 73 | 15 | 3.0 | 6.0 | 0.00 | 0.00 | 0.00 | 73 | 1014.1 |
| 20260508001327 | 73 | 27 | 2.0 | 8.0 | 0.00 | 0.00 | 0.00 | 73 | 1014.0 |
| 20260508000334 | 74 | 294 | 4.0 | 11.0 | 0.00 | 0.00 | 0.00 | 71 | 1014.0 |
| 20260507235359 | 75 | 315 | 4.0 | 12.0 | 0.00 | 0.00 | 0.00 | 71 | 1014.3 |
| 20260507234328 | 76 | 285 | 5.0 | 10.0 | 0.00 | 0.00 | 0.00 | 72 | 1014.5 |
| 20260507233332 | 76 | 8 | 1.0 | 4.0 | 0.00 | 0.00 | 0.00 | 73 | 1014.3 |
| 20260507232400 | 76 | 19 | 2.0 | 4.0 | 0.00 | 0.00 | 0.00 | 73 | 1014.4 |
| 20260507231326 | 76 | 4 | 0.0 | 8.0 | 0.00 | 0.00 | 0.00 | 72 | 1014.1 |
| 20260507230330 | 76 | 77 | 3.0 | 10.0 | 0.00 | 0.00 | 0.00 | 71 | 1014.1 |
| 20260507225333 | 77 | 17 | 1.0 | 8.0 | 0.00 | 0.00 | 0.00 | 72 | 1014.0 |
| 20260507224342 | 77 | 15 | 4.0 | 9.0 | 0.00 | 0.00 | 0.00 | 71 | 1013.8 |
| 20260507223347 | 77 | 2 | 4.0 | 9.0 | 0.00 | 0.00 | 0.00 | 71 | 1013.6 |
| 20260507222338 | 77 | 360 | 2.0 | 11.0 | 0.00 | 0.00 | 0.00 | 71 | 1013.5 |
| 20260507221328 | 77 | 350 | 4.0 | 10.0 | 0.00 | 0.00 | 0.00 | 70 | 1013.6 |
| 20260507220333 | 77 | 25 | 2.0 | 7.0 | 0.00 | 0.00 | 0.00 | 71 | 1013.5 |
| 20260507215339 | 77 | 65 | 2.0 | 9.0 | 0.00 | 0.00 | 0.00 | 71 | 1013.6 |
| 20260507214327 | 77 | 50 | 2.0 | 9.0 | 0.00 | 0.00 | 0.00 | 71 | 1013.8 |
| 20260507213333 | 77 | 21 | 1.0 | 10.0 | 0.00 | 0.00 | 0.00 | 70 | 1013.9 |
| 20260507212325 | 77 | 60 | 2.0 | 10.0 | 0.00 | 0.00 | 0.00 | 69 | 1014.0 |
| 20260507211332 | 78 | 8 | 3.0 | 10.0 | 0.00 | 0.00 | 0.00 | 68 | 1014.2 |
| 20260507210355 | 78 | 56 | 3.0 | 10.0 | 0.00 | 0.00 | 0.00 | 70 | 1014.2 |
| 20260507205339 | 78 | 340 | 6.0 | 13.0 | 0.00 | 0.00 | 0.00 | 68 | 1014.4 |
| 20260507204327 | 78 | 6 | 3.0 | 11.0 | 0.00 | 0.00 | 0.00 | 71 | 1014.5 |
| 20260507203331 | 77 | 24 | 5.0 | 10.0 | 0.00 | 0.00 | 0.00 | 72 | 1014.6 |
| 20260507202356 | 77 | 331 | 5.0 | 10.0 | 0.00 | 0.00 | 0.00 | 72 | 1014.6 |
| 20260507201402 | 76 | 2 | 4.0 | 11.0 | 0.00 | 0.00 | 0.00 | 71 | 1014.7 |
| 20260507200326 | 76 | 40 | 5.0 | 13.0 | 0.00 | 0.00 | 0.00 | 70 | 1014.7 |
| 20260507195351 | 76 | 296 | 4.0 | 9.0 | 0.00 | 0.00 | 0.00 | 72 | 1014.9 |
| 20260507194339 | 75 | 324 | 4.0 | 11.0 | 0.00 | 0.00 | 0.00 | 72 | 1015.0 |
| 20260507193339 | 75 | 15 | 5.0 | 12.0 | 0.00 | 0.00 | 0.00 | 72 | 1014.9 |
| 20260507192325 | 74 | 317 | 3.0 | 12.0 | 0.00 | 0.00 | 0.00 | 73 | 1015.1 |
| 20260507191332 | 73 | 52 | 4.0 | 10.0 | 0.00 | 0.00 | 0.00 | 73 | 1015.4 |
| 20260507190356 | 73 | 5 | 5.0 | 12.0 | 0.00 | 0.00 | 0.00 | 74 | 1015.8 |
| 20260507185324 | 72 | 18 | 4.0 | 11.0 | 0.00 | 0.01 | 0.00 | 75 | 1015.9 |
| 20260507184350 | 72 | 13 | 4.0 | 11.0 | 0.00 | 0.01 | 0.00 | 77 | 1016.1 |
| 20260507183333 | 71 | 314 | 6.0 | 12.0 | 0.00 | 0.01 | 0.00 | 76 | 1016.4 |
| 20260507182401 | 70 | 350 | 5.0 | 16.0 | 0.00 | 0.01 | 0.00 | 77 | 1016.5 |
| 20260507181329 | 70 | 345 | 6.0 | 13.0 | 0.00 | 0.01 | 0.00 | 77 | 1016.4 |
| 20260507180353 | 70 | 335 | 5.0 | 13.0 | 0.00 | 0.01 | 0.00 | 77 | 1016.6 |
| 20260507175356 | 70 | 323 | 6.0 | 13.0 | 0.00 | 0.02 | 0.00 | 76 | 1016.5 |
| 20260507174342 | 70 | 333 | 5.0 | 13.0 | 0.00 | 0.02 | 0.00 | 77 | 1016.7 |
| 20260507173327 | 69 | 25 | 4.0 | 15.0 | 0.00 | 0.02 | 0.00 | 77 | 1016.7 |
| 20260507172354 | 69 | 350 | 3.0 | 12.0 | 0.00 | 0.02 | 0.00 | 78 | 1017.0 |
| 20260507171358 | 69 | 7 | 5.0 | 12.0 | 0.00 | 0.02 | 0.00 | 78 | 1017.0 |
| 20260507170340 | 69 | 345 | 5.0 | 13.0 | 0.00 | 0.02 | 0.00 | 78 | 1017.2 |
| 20260507165327 | 68 | 4 | 5.0 | 10.0 | 0.00 | 0.03 | 0.00 | 80 | 1017.2 |
| 20260507164338 | 67 | 350 | 5.0 | 14.0 | 0.00 | 0.03 | 0.00 | 80 | 1017.2 |
| 20260507163322 | 68 | 306 | 5.0 | 15.0 | 0.00 | 0.03 | 0.00 | 79 | 1017.3 |
| 20260507162329 | 67 | 9 | 8.0 | 15.0 | 0.00 | 0.03 | 0.00 | 79 | 1017.1 |
| 20260507161335 | 67 | 359 | 1.0 | 14.0 | 0.00 | 0.03 | 0.00 | 81 | 1017.0 |
| 20260507160359 | 66 | 31 | 3.0 | 11.0 | 0.00 | 0.03 | 0.00 | 81 | 1017.0 |
| 20260507155344 | 66 | 33 | 3.0 | 13.0 | 0.00 | 0.03 | 0.00 | 81 | 1016.8 |
| 20260507154329 | 66 | 36 | 5.0 | 14.0 | 0.00 | 0.03 | 0.00 | 81 | 1016.6 |
| 20260507153334 | 65 | 340 | 6.0 | 13.0 | 0.00 | 0.03 | 0.00 | 82 | 1016.6 |
| 20260507152326 | 65 | 300 | 5.0 | 12.0 | 0.00 | 0.03 | 0.00 | 83 | 1016.7 |
| 20260507151335 | 64 | 16 | 4.0 | 11.0 | 0.00 | 0.03 | 0.00 | 83 | 1016.8 |
| 20260507150341 | 64 | 340 | 3.0 | 11.0 | 0.00 | 0.03 | 0.00 | 84 | 1017.0 |
| 20260507145329 | 64 | 340 | 5.0 | 13.0 | 0.00 | 0.03 | 0.00 | 84 | 1017.2 |
| 20260507144335 | 64 | 47 | 4.0 | 13.0 | 0.00 | 0.03 | 0.00 | 85 | 1016.9 |
| 20260507143339 | 64 | 345 | 3.0 | 13.0 | 0.00 | 0.03 | 0.00 | 87 | 1017.0 |